Weather in Novoihorivka

Ukraine / Kirovohrad Region     48°06′37″N   32°31′35″E
temp.,
°C
wind,
m/s
gust,
m/s
humid.,
%
clouds,
%
prec.,
mm/h
press.,
hPa
HPBL,
m
14 may, fri
fri1400:00+13ese4107036 0.1 1010218
03:00+12se3579100 0.1 1010102
06:00+10se228595 0.0 100930
09:00+16sse4566100 0.0 1008513
12:00+20ssw5748100 0.0 10091071
15:00+22ssw684952 0.0 10081741
18:00+21ssw67563 0.0 10081455
21:00+14s4107834 0.0 1010205
15 may, sat
sat1500:00+13ssw498389 0.0 1010248
03:00+12ssw37945 0.0 1011134
06:00+11sw35930 0.0 1012114
09:00+17wsw35631 0.0 1013580
12:00+21sw454715 0.0 10131608
15:00+23sw3543100 0.0 10122420
18:00+20sse1159100 0.0 101211
21:00+16sw337884 0.1 101338
16 may, sun
sun1600:00+14wsw1283100 0.0 101310
03:00+13e11821 0.0 101310
06:00+13ne22805 0.0 101313
09:00+20ene3358100 0.0 1013434
12:00+23e454793 0.0 10121556
15:00+25e45399 0.0 10112245
18:00+24ene475097 0.0 1009364
21:00+19ne3662100 0.0 100988
17 may, mon
mon1700:00+16ne4117995 0.8 1008187
03:00+15ene41094100 4.9 1007249
06:00+15nne3697100 5.3 1006241
09:00+16nw5993100 9.0 1005506
12:00+20n337782 0.1 1005786
15:00+19nw778088 0.8 1005549
18:00+17nw787945 0.0 1007651
21:00+14wnw34925 0.0 100873
18 may, tue
tue1800:00+13w22945 0.0 100933
03:00+12wnw11925 0.0 100911
06:00+13s119316 0.2 101017
09:00+18s337829 0.2 1010552
12:00+23sw57535 0.4 10101605
15:00+25ssw89452 0.5 10092369
18:00+22ssw79578 0.0 10101124
21:00+19ssw5107267 0.1 1011403